• In Russia
  • List of Countries
  • For 7 days
  • Water Temperature
  • Satellite Maps
  • Weather Map
  • Weather Widgets
  • user-avatar
    Login

    Hourly Weather Cania

    Today, 21 February, Thursday

    Time Temperature Precipitation Wind Pressure Humidity
    00:00 +7°C° 0 mm 3 mps 762 mmHg 76%
    01:00 +5°C° 0 mm 3 mps 762 mmHg 78%
    02:00 +5°C° 0 mm 2 mps 762 mmHg 80%
    03:00 +5°C° 0 mm 2 mps 762 mmHg 81%
    04:00 +4°C° 0 mm 3 mps 762 mmHg 83%
    05:00 +3°C° 0 mm 3 mps 763 mmHg 84%
    06:00 +4°C° 0 mm 3 mps 763 mmHg 82%
    07:00 +4°C° 0 mm 3 mps 763 mmHg 79%
    08:00 +4°C° 0 mm 4 mps 763 mmHg 72%
    09:00 +5°C° 0 mm 5 mps 763 mmHg 65%
    10:00 +5°C° 0 mm 7 mps 763 mmHg 57%
    11:00 +7°C° 0 mm 8 mps 763 mmHg 49%
    12:00 +8°C° 0 mm 7 mps 763 mmHg 48%
    13:00 +8°C° 0 mm 7 mps 763 mmHg 47%
    14:00 +9°C° 0 mm 7 mps 763 mmHg 46%
    15:00 +9°C° 0 mm 6 mps 763 mmHg 48%
    16:00 +8°C° 0 mm 5 mps 763 mmHg 50%
    17:00 +8°C° 0 mm 4 mps 763 mmHg 52%
    18:00 +7°C° 0 mm 4 mps 763 mmHg 56%
    19:00 +8°C° 0 mm 3 mps 763 mmHg 59%
    20:00 +7°C° 0 mm 3 mps 763 mmHg 63%
    21:00 +6°C° 0 mm 2 mps 763 mmHg 64%
    22:00 +6°C° 0 mm 2 mps 763 mmHg 65%
    23:00 +6°C° 0 mm 2 mps 763 mmHg 67%

    Tomorrow, 22 February, Friday

    Time Temperature Precipitation Wind Pressure Humidity
    00:00 +5°C° 0 mm 2 mps 762 mmHg 67%
    01:00 +5°C° 0 mm 2 mps 762 mmHg 67%
    02:00 +4°C° 0 mm 3 mps 761 mmHg 67%
    03:00 +5°C° 0 mm 2 mps 761 mmHg 68%
    04:00 +5°C° 0 mm 2 mps 760 mmHg 69%
    05:00 +4°C° 0 mm 2 mps 760 mmHg 69%
    06:00 +4°C° 0.1 mm 2 mps 759 mmHg 70%
    07:00 +4°C° 0.1 mm 2 mps 759 mmHg 70%
    08:00 +5°C° 0.1 mm 2 mps 758 mmHg 71%
    09:00 +5°C° 0.3 mm 2 mps 758 mmHg 69%
    10:00 +6°C° 0.3 mm 2 mps 758 mmHg 68%
    11:00 +6°C° 0.3 mm 2 mps 758 mmHg 67%
    12:00 +4°C° 0.5 mm 4 mps 759 mmHg 72%
    13:00 0°C° 0.5 mm 7 mps 759 mmHg 77%
    14:00 -1°C° 0.5 mm 9 mps 760 mmHg 82%
    15:00 -3°C° 0.3 mm 9 mps 761 mmHg 80%
    16:00 -4°C° 0.3 mm 9 mps 761 mmHg 77%
    17:00 -5°C° 0.3 mm 8 mps 762 mmHg 75%
    18:00 -5°C° 0.1 mm 9 mps 764 mmHg 70%
    19:00 -6°C° 0.1 mm 9 mps 765 mmHg 66%
    20:00 -8°C° 0.1 mm 10 mps 766 mmHg 61%
    21:00 -8°C° 0 mm 9 mps 766 mmHg 59%
    22:00 -9°C° 0 mm 9 mps 767 mmHg 57%
    23:00 -9°C° 0 mm 9 mps 767 mmHg 55%

    Day after tomorrow, 23 February, Saturday

    Time Temperature Precipitation Wind Pressure Humidity
    00:00 -8°C° 0 mm 8 mps 768 mmHg 55%
    01:00 -8°C° 0 mm 8 mps 768 mmHg 56%
    02:00 -10°C° 0 mm 8 mps 768 mmHg 56%
    03:00 -10°C° 0 mm 8 mps 768 mmHg 56%
    04:00 -10°C° 0 mm 8 mps 769 mmHg 55%
    05:00 -10°C° 0 mm 8 mps 769 mmHg 55%
    06:00 -10°C° 0 mm 8 mps 769 mmHg 56%
    07:00 -10°C° 0 mm 8 mps 770 mmHg 57%
    08:00 -10°C° 0 mm 9 mps 771 mmHg 59%
    09:00 -8°C° 0 mm 8 mps 771 mmHg 57%
    10:00 -8°C° 0 mm 8 mps 771 mmHg 56%
    11:00 -7°C° 0 mm 8 mps 771 mmHg 54%
    12:00 -7°C° 0 mm 8 mps 771 mmHg 55%
    13:00 -7°C° 0 mm 8 mps 771 mmHg 55%
    14:00 -6°C° 0 mm 8 mps 772 mmHg 56%
    15:00 -7°C° 0 mm 8 mps 772 mmHg 59%
    16:00 -7°C° 0 mm 8 mps 772 mmHg 61%
    17:00 -7°C° 0 mm 7 mps 772 mmHg 64%
    18:00 -7°C° 0.1 mm 7 mps 772 mmHg 66%
    19:00 -8°C° 0.1 mm 7 mps 773 mmHg 68%
    20:00 -8°C° 0.1 mm 6 mps 773 mmHg 70%
    21:00 -8°C° 0.1 mm 6 mps 773 mmHg 71%
    22:00 -8°C° 0.1 mm 6 mps 774 mmHg 71%
    23:00 -8°C° 0.1 mm 6 mps 774 mmHg 72%

    24 February, Sunday

    Time Temperature Precipitation Wind Pressure Humidity
    00:00 -8°C° 0.1 mm 6 mps 774 mmHg 72%
    01:00 -8°C° 0.1 mm 6 mps 774 mmHg 72%
    02:00 -7°C° 0.1 mm 5 mps 774 mmHg 72%
    03:00 -8°C° 0.1 mm 5 mps 773 mmHg 72%
    04:00 -8°C° 0.1 mm 5 mps 773 mmHg 72%
    05:00 -8°C° 0.1 mm 5 mps 773 mmHg 72%
    06:00 -8°C° 0 mm 5 mps 774 mmHg 71%
    07:00 -8°C° 0 mm 5 mps 774 mmHg 71%
    08:00 -8°C° 0 mm 5 mps 774 mmHg 70%
    09:00 -7°C° 0 mm 5 mps 774 mmHg 68%
    10:00 -7°C° 0 mm 5 mps 774 mmHg 65%
    11:00 -6°C° 0 mm 5 mps 774 mmHg 63%
    12:00 -6°C° 0 mm 5 mps 774 mmHg 62%
    13:00 -5°C° 0 mm 5 mps 774 mmHg 60%
    14:00 -5°C° 0 mm 5 mps 773 mmHg 59%
    15:00 -4°C° 0 mm 4 mps 773 mmHg 60%
    16:00 -4°C° 0 mm 4 mps 773 mmHg 60%
    17:00 -4°C° 0 mm 4 mps 773 mmHg 61%
    18:00 -4°C° 0 mm 3 mps 774 mmHg 64%
    19:00 -4°C° 0 mm 2 mps 774 mmHg 68%
    20:00 -4°C° 0 mm 2 mps 775 mmHg 71%
    21:00 -4°C° 0 mm 2 mps 775 mmHg 71%
    22:00 -4°C° 0 mm 2 mps 775 mmHg 71%
    23:00 -4°C° 0 mm 2 mps 775 mmHg 71%

    25 February, Monday

    Time Temperature Precipitation Wind Pressure Humidity
    00:00 -4°C° 0 mm 2 mps 775 mmHg 70%
    01:00 -4°C° 0 mm 2 mps 775 mmHg 70%
    02:00 -4°C° 0 mm 2 mps 775 mmHg 70%
    03:00 -4°C° 0 mm 2 mps 775 mmHg 70%
    04:00 -4°C° 0 mm 2 mps 774 mmHg 70%
    05:00 -5°C° 0 mm 2 mps 774 mmHg 71%
    06:00 -4°C° 0 mm 2 mps 774 mmHg 69%
    07:00 -4°C° 0 mm 2 mps 774 mmHg 68%
    08:00 -4°C° 0 mm 2 mps 774 mmHg 67%
    09:00 -2°C° 0 mm 2 mps 773 mmHg 60%
    10:00 -1°C° 0 mm 3 mps 773 mmHg 54%
    11:00 +1°C° 0 mm 3 mps 773 mmHg 47%
    12:00 +2°C° 0 mm 3 mps 772 mmHg 45%
    13:00 +3°C° 0 mm 3 mps 772 mmHg 43%
    14:00 +4°C° 0 mm 3 mps 771 mmHg 41%
    15:00 +3°C° 0 mm 3 mps 770 mmHg 46%
    16:00 +3°C° 0 mm 3 mps 770 mmHg 51%
    17:00 +3°C° 0 mm 2 mps 769 mmHg 56%
    18:00 +3°C° 0 mm 2 mps 769 mmHg 58%
    19:00 +2°C° 0 mm 2 mps 769 mmHg 60%
    20:00 +1°C° 0 mm 2 mps 768 mmHg 62%
    21:00 0°C° 0 mm 3 mps 768 mmHg 67%
    22:00 0°C° 0 mm 4 mps 768 mmHg 71%
    23:00 0°C° 0 mm 5 mps 768 mmHg 76%

    26 February, Tuesday

    Time Temperature Precipitation Wind Pressure Humidity
    00:00 0°C° 0 mm 5 mps 767 mmHg 79%
    01:00 -2°C° 0 mm 6 mps 767 mmHg 82%
    02:00 -2°C° 0 mm 7 mps 766 mmHg 86%
    03:00 -2°C° 0 mm 7 mps 766 mmHg 86%
    04:00 -2°C° 0 mm 7 mps 765 mmHg 86%
    05:00 -2°C° 0 mm 8 mps 765 mmHg 86%
    06:00 -2°C° 0 mm 7 mps 765 mmHg 86%
    07:00 -2°C° 0 mm 7 mps 765 mmHg 85%
    08:00 -1°C° 0 mm 7 mps 765 mmHg 84%
    09:00 0°C° 0 mm 7 mps 764 mmHg 78%
    10:00 +2°C° 0 mm 7 mps 763 mmHg 72%
    11:00 +4°C° 0 mm 7 mps 763 mmHg 65%
    12:00 +4°C° 0 mm 6 mps 762 mmHg 63%
    13:00 +5°C° 0 mm 6 mps 761 mmHg 60%
    14:00 +6°C° 0 mm 5 mps 760 mmHg 57%
    15:00 +6°C° 0 mm 5 mps 759 mmHg 57%
    16:00 +6°C° 0 mm 4 mps 758 mmHg 57%
    17:00 +7°C° 0 mm 4 mps 757 mmHg 57%
    18:00 +5°C° 0 mm 4 mps 757 mmHg 61%
    19:00 +4°C° 0 mm 4 mps 756 mmHg 65%
    20:00 +3°C° 0 mm 4 mps 755 mmHg 69%
    21:00 +3°C° 0 mm 4 mps 755 mmHg 71%
    22:00 +3°C° 0 mm 5 mps 754 mmHg 73%
    23:00 +3°C° 0 mm 5 mps 753 mmHg 75%
    Show more